Torna al catalogo

COSMOS 1691 DEB

AttivoPO
NORAD 16270·DEBRIS·🇷🇺 Russia

Lanciato Oct 9, 1985 da Plesetsk Cosmodrome

Loading…

Prossimi Passaggi (prossime 24 ore)

TLE

AggiornatoSource: Space-Track

Epoca: Sep 13, 2026, 13:57 UTC

1 16270U 85094P   26256.58172485  .00000151  00000-0  62565-3 0  9997
2 16270  82.7287 289.4004 0260759 199.7749 328.6233 12.69180231892991

Traccia COSMOS 1691 DEB in tempo reale con AllMySat

Download on the App Store